Racecast

Cadence Tyler

Hillgrove (Cobb) (GA) · 12 · AAAAAGA D7ACOBB · Compare head to head

Athlete rating 100.7 2021 XC season
Best race 102.0 XC
Races 42
Seasons 4 2018 — 2021

RankedNation #75041·GA #1857·GA D7A #418·AAAAA #562·Team #37 ?

Speed rating — all races

Cross Country

XC speed rating

2021 XC 98.8

Hillgrove (Cobb) (GA) · Grade 12

Date Meet Event Result Place Rating Difficulty PR/SR Flags
2021-10-16 McIntosh Reserve Park 5000m 24:37.9 165th · 8th on team 99.8 -0.016 ★CR SR CSR
2021-09-25 Sam Smith Park 5000m 24:48.8 133rd · 8th on team 102.0 +0.009 ★CR ★R SR CSR RSR
2021-09-18 Allatoona Creek Park 5000m 25:36.4 44th · 7th on team 97.7 -0.007 SR CSR RSR
2021-08-28 Boling Park 5000m 25:58.2 59th · 6th on team 95.8 -0.016 ★CR SR CSR RSR

2020 XC 89.4

Hillgrove (Cobb) (GA) · Grade 11

Date Meet Event Result Place Rating Difficulty PR/SR Flags
2020-11-20 Hillgrove High School 3200m 15:14.8 33rd · 18th on team 96.6 -0.046 ★PR ★CR SR CSR RSR
2020-10-26 Allatoona Creek Park 5000m 27:25.1 75th · 14th on team 90.5 -0.007 CSR
2020-10-17 McIntosh Reserve Park 5000m 25:55.6 187th · 8th on team 95.3 -0.016 CR SR CSR RSR
2020-10-06 Dellinger Park 5000m 29:32.9 67th · 14th on team 85.5 +0.001 ★CR CSR
2020-09-26 Allatoona Creek Park 5000m 28:18.6 5th · 3rd on team 88.1 -0.007 CSR
2020-09-05 Allatoona Creek Park 5000m 31:18.1 67th · 8th on team 79.7 -0.007 CSR
2020-08-22 Boling Park 5000m 27:32.8 157th · 17th on team 89.3 -0.016 CR SR CSR
2020-08-15 Allatoona Creek Park 3218m 16:58.8 20th · 2nd on team 90.3 -0.012 ★PR ★CR SR CSR RSR

2019 XC 88.0

Hillgrove (Cobb) (GA) · Grade 10

Date Meet Event Result Place Rating Difficulty PR/SR Flags
2019-11-16 ONE Church 5000m 25:34.1 42nd · 9th on team 96.8 -0.004 ★CR SR CSR RSR
2019-10-23 Allatoona Creek Park 5000m 28:00.1 118th · 19th on team 88.7 -0.007 CSR
2019-10-12 McIntosh Reserve Park 5000m 27:15.1 130th · 5th on team 89.0 -0.016 CR CSR
2019-10-05 Foxhall Sporting Club 5000m 30:53.8 56th · 3rd on team 80.1 -0.005 ★CR CSR
2019-09-21 Sam Smith Park 5000m 26:19.8 282nd · 8th on team 95.2 +0.009 CR SR CSR RSR
2019-08-16 Fairways of Canton Golf Club | Stratus Kitchen & Bar 3218m 20:45.3 73rd · 10th on team 78.0 +0.039 ★CR SR CSR RSR

2018 XC 83.0

Hillgrove (Cobb) (GA) · Grade 9

Date Meet Event Result Place Rating Difficulty PR/SR Flags
2018-10-24 Allatoona Creek Park 5000m 28:17.8 102nd · 15th on team 87.3 -0.007 R RSR
2018-09-08 Allatoona Creek Park 5000m 21:00.5 19th · 4th on team -0.007 ★PR ★CR SR CSR
2018-08-17 Allatoona Creek Park 3218m 19:05.3 38th · 26th on team 78.7 -0.012 PR CR R SR CSR RSR

Track & Field

TF speed rating

2021 TF 100.3

Hillgrove (Cobb) (GA) · Grade 11

Date Meet Event Result Place Rating Difficulty PR/SR Flags
2021-03-24 Allatoona JV Meet #4 3200m 14:50.96 12th · 9th on team 101.3 -0.024 ★PR SR
2021-03-10 Harrison Home Meet #1 800m 3:03.78 22nd · 10th on team 101.3 -0.026
2021-03-10 Harrison Home Meet #1 1600m 6:48.37 21st · 8th on team 101.6 -0.026 ★PR SR
2021-03-03 Marietta/Hillgrove/McEachern Tri-Meet 1600m 7:03.95 14th · 7th on team 97.5 -0.029
2021-03-03 Marietta/Hillgrove/McEachern Tri-Meet 800m 3:05.25 12th · 4th on team 100.2 -0.029
2021-02-20 Allatoona All-Comers Meet 1600m 7:02.35 30th · 13th on team 98.3 -0.024 SR RSR
2021-02-20 Allatoona All-Comers Meet 800m 3:03.61 22nd · 12th on team 101.6 -0.024 ★PR R SR RSR

2020 TF 97.0

Hillgrove (Cobb) (GA) · Grade 10

Date Meet Event Result Place Rating Difficulty PR/SR Flags
2020-03-11 Hillgrove Tri-Meet 1600m 6:58.38 14th · 7th on team 99.1 -0.029 SR RSR
2020-03-11 Hillgrove Tri-Meet 800m 3:16.44 15th · 5th on team 94.6 -0.029
2020-03-04 Marietta JV Meet#1 1600m 7:15.85 18th · 8th on team 94.9 -0.029
2020-03-04 Marietta JV Meet#1 800m 3:13.93 11th · 6th on team 95.6 -0.029
2020-02-15 Marietta Distance Carnival 1600m 7:01.01 99th · 14th on team 98.5 -0.029 SR RSR
2020-02-15 Marietta Distance Carnival 800m 3:07.55 67th · 13th on team 99.0 -0.029 SR RSR

2019 TF 96.1

Hillgrove (Cobb) (GA) · Grade 9

Date Meet Event Result Place Rating Difficulty PR/SR Flags
2019-03-27 Marietta/Campbell/Harrison/Hillgrove Quad 800m 3:05.82 15th · 4th on team 99.5 -0.029 PR R SR RSR
2019-03-20 McEachern JV Meet 1600m 7:17.64 14th · 5th on team 94.5 -0.031
2019-03-20 McEachern JV Meet 800m 3:11.19 24th · 5th on team 96.6 -0.031 PR SR
2019-03-13 Hillgrove Tri-Meet 3200m 15:43.67 2nd · 2nd on team 95.0 -0.029 PR SR
2019-03-06 Marietta/Hillgrove/McEachern/Walker Quad Meet 800m 3:15.41 21st · 8th on team 95.1 -0.029
2019-03-06 Marietta/Hillgrove/McEachern/Walker Quad Meet 1600m 6:58.12 14th · 6th on team 99.4 -0.029 PR R SR RSR
2019-02-16 Marietta Distance Carnival 800m 3:11.71 50th · 13th on team 96.5 -0.029 PR R SR RSR
2019-02-16 Marietta Distance Carnival 1600m 7:30.76 94th · 15th on team 91.9 -0.029 PR SR